| time (UTC) | temp F | wind direction | speed MPH | gust MPH | rain 1hr in | rain 24hr in | rain mn in | humidity % | barometer mb |
| 20260509152017 | 60 | 221 | 3.0 | 7.0 | 0.00 | 0.00 | 0.00 | 83 | 1014.1 |
| 20260509151530 | 59 | 229 | 2.0 | 7.0 | 0.00 | 0.00 | 0.00 | 82 | 1014.1 |
| 20260509151014 | 59 | 261 | 4.0 | 7.0 | 0.00 | 0.00 | 0.00 | 84 | 1014.1 |
| 20260509150517 | 59 | 232 | 4.0 | 7.0 | 0.00 | 0.00 | 0.00 | 84 | 1014.1 |
| 20260509150029 | 58 | 214 | 3.0 | 5.0 | 0.00 | 0.00 | 0.00 | 85 | 1014.1 |
| 20260509145513 | 58 | 188 | 2.0 | 5.0 | 0.00 | 0.00 | 0.00 | 86 | 1014.2 |
| 20260509145013 | 57 | 188 | 2.0 | 4.0 | 0.00 | 0.00 | 0.00 | 86 | 1014.2 |
| 20260509144533 | 57 | 215 | 2.0 | 5.0 | 0.00 | 0.00 | 0.00 | 86 | 1014.2 |
| 20260509144012 | 57 | 261 | 3.0 | 6.0 | 0.00 | 0.00 | 0.00 | 87 | 1014.1 |
| 20260509143513 | 56 | 246 | 3.0 | 6.0 | 0.00 | 0.00 | 0.00 | 88 | 1014.1 |
| 20260509143030 | 56 | 221 | 2.0 | 6.0 | 0.00 | 0.00 | 0.00 | 89 | 1014.0 |
| 20260509142513 | 56 | 236 | 3.0 | 6.0 | 0.00 | 0.00 | 0.00 | 89 | 1014.0 |
| 20260509142018 | 55 | 262 | 3.0 | 8.0 | 0.00 | 0.00 | 0.00 | 89 | 1014.0 |
| 20260509141539 | 55 | 249 | 3.0 | 8.0 | 0.00 | 0.00 | 0.00 | 89 | 1014.0 |
| 20260509141014 | 55 | 252 | 2.0 | 6.0 | 0.00 | 0.00 | 0.00 | 89 | 1013.9 |
| 20260509140512 | 54 | 263 | 1.0 | 4.0 | 0.00 | 0.00 | 0.00 | 89 | 1013.9 |
| 20260509140030 | 54 | 266 | 1.0 | 5.0 | 0.00 | 0.00 | 0.00 | 90 | 1013.9 |
| 20260509135515 | 54 | 268 | 2.0 | 5.0 | 0.00 | 0.00 | 0.00 | 91 | 1013.9 |
| 20260509135014 | 53 | 273 | 2.0 | 4.0 | 0.00 | 0.00 | 0.00 | 91 | 1013.9 |
| 20260509134533 | 53 | 250 | 1.0 | 5.0 | 0.00 | 0.00 | 0.00 | 92 | 1013.9 |
| 20260509134013 | 52 | 271 | 1.0 | 6.0 | 0.00 | 0.00 | 0.00 | 92 | 1013.9 |
| 20260509133513 | 52 | 217 | 2.0 | 6.0 | 0.00 | 0.00 | 0.00 | 92 | 1013.9 |
| 20260509133033 | 51 | 0 | 0.0 | 2.0 | 0.00 | 0.00 | 0.00 | 91 | 1013.9 |
| 20260509132516 | 51 | 49 | 0.0 | 2.0 | 0.00 | 0.00 | 0.00 | 91 | 1013.9 |
| 20260509132013 | 52 | 49 | 0.0 | 3.0 | 0.00 | 0.00 | 0.00 | 91 | 1013.8 |
| 20260509131530 | 52 | 49 | 0.0 | 3.0 | 0.00 | 0.00 | 0.00 | 92 | 1013.7 |
| 20260509131011 | 52 | 51 | 1.0 | 3.0 | 0.00 | 0.00 | 0.00 | 92 | 1013.8 |
| 20260509130513 | 52 | 35 | 1.0 | 3.0 | 0.00 | 0.00 | 0.00 | 92 | 1013.7 |
| 20260509130030 | 52 | 19 | 0.0 | 2.0 | 0.00 | 0.00 | 0.00 | 92 | 1013.7 |
| 20260509125517 | 52 | 10 | 1.0 | 2.0 | 0.00 | 0.00 | 0.00 | 91 | 1013.6 |
| 20260509125014 | 52 | 311 | 0.0 | 2.0 | 0.00 | 0.00 | 0.00 | 91 | 1013.6 |
| 20260509124529 | 52 | 0 | 0.0 | 2.0 | 0.00 | 0.00 | 0.00 | 91 | 1013.6 |
| 20260509124013 | 51 | 0 | 0.0 | 2.0 | 0.00 | 0.00 | 0.00 | 91 | 1013.5 |
| 20260509123513 | 51 | 0 | 0.0 | 0.0 | 0.00 | 0.00 | 0.00 | 91 | 1013.5 |
| 20260509123032 | 51 | 0 | 0.0 | 0.0 | 0.00 | 0.00 | 0.00 | 90 | 1013.6 |
| 20260509122512 | 51 | 0 | 0.0 | 0.0 | 0.00 | 0.00 | 0.00 | 90 | 1013.5 |
| 20260509122012 | 52 | 0 | 0.0 | 0.0 | 0.00 | 0.00 | 0.00 | 90 | 1013.5 |
| 20260509121531 | 52 | 0 | 0.0 | 0.0 | 0.00 | 0.00 | 0.00 | 90 | 1013.5 |
| 20260509121014 | 53 | 0 | 0.0 | 0.0 | 0.00 | 0.00 | 0.00 | 90 | 1013.5 |
| 20260509120517 | 53 | 0 | 0.0 | 0.0 | 0.00 | 0.00 | 0.00 | 89 | 1013.5 |
| 20260509120029 | 53 | 0 | 0.0 | 0.0 | 0.00 | 0.00 | 0.00 | 89 | 1013.6 |
| 20260509115514 | 53 | 0 | 0.0 | 2.0 | 0.00 | 0.00 | 0.00 | 90 | 1013.5 |
| 20260509115014 | 53 | 0 | 0.0 | 2.0 | 0.00 | 0.00 | 0.00 | 90 | 1013.6 |
| 20260509114533 | 53 | 272 | 1.0 | 3.0 | 0.00 | 0.00 | 0.00 | 91 | 1013.6 |
| 20260509114017 | 53 | 276 | 1.0 | 3.0 | 0.00 | 0.00 | 0.00 | 91 | 1013.6 |
| 20260509113513 | 53 | 277 | 1.0 | 3.0 | 0.00 | 0.00 | 0.00 | 91 | 1013.6 |
| 20260509113030 | 53 | 0 | 0.0 | 0.0 | 0.00 | 0.00 | 0.00 | 90 | 1013.7 |
| 20260509112514 | 53 | 0 | 0.0 | 0.0 | 0.00 | 0.00 | 0.00 | 90 | 1013.7 |
| 20260509112015 | 53 | 0 | 0.0 | 0.0 | 0.00 | 0.00 | 0.00 | 90 | 1013.7 |
| 20260509111531 | 53 | 0 | 0.0 | 0.0 | 0.00 | 0.00 | 0.00 | 90 | 1013.6 |
| 20260509111014 | 53 | 0 | 0.0 | 0.0 | 0.00 | 0.00 | 0.00 | 90 | 1013.7 |
| 20260509110512 | 53 | 0 | 0.0 | 0.0 | 0.00 | 0.00 | 0.00 | 90 | 1013.7 |
| 20260509110032 | 52 | 0 | 0.0 | 0.0 | 0.00 | 0.00 | 0.00 | 90 | 1013.6 |
| 20260509105514 | 52 | 0 | 0.0 | 0.0 | 0.00 | 0.00 | 0.00 | 90 | 1013.6 |
| 20260509105014 | 52 | 0 | 0.0 | 0.0 | 0.00 | 0.00 | 0.00 | 90 | 1013.6 |
| 20260509104536 | 52 | 0 | 0.0 | 1.0 | 0.00 | 0.00 | 0.00 | 90 | 1013.5 |
| 20260509104013 | 52 | 0 | 0.0 | 1.0 | 0.00 | 0.00 | 0.00 | 90 | 1013.6 |
| 20260509103513 | 52 | 0 | 0.0 | 1.0 | 0.00 | 0.00 | 0.00 | 90 | 1013.6 |
| 20260509103031 | 52 | 0 | 0.0 | 1.0 | 0.00 | 0.00 | 0.00 | 90 | 1013.5 |
| 20260509102515 | 52 | 0 | 0.0 | 1.0 | 0.00 | 0.00 | 0.00 | 90 | 1013.6 |
| 20260509102015 | 52 | 0 | 0.0 | 0.0 | 0.00 | 0.00 | 0.00 | 89 | 1013.6 |
| 20260509101536 | 52 | 0 | 0.0 | 0.0 | 0.00 | 0.00 | 0.00 | 89 | 1013.6 |
| 20260509101014 | 53 | 0 | 0.0 | 1.0 | 0.00 | 0.00 | 0.00 | 88 | 1013.7 |
| 20260509100516 | 54 | 0 | 0.0 | 1.0 | 0.00 | 0.00 | 0.00 | 87 | 1013.7 |
| 20260509100031 | 54 | 0 | 0.0 | 2.0 | 0.00 | 0.00 | 0.00 | 88 | 1013.8 |
| 20260509095516 | 54 | 0 | 0.0 | 2.0 | 0.00 | 0.00 | 0.00 | 88 | 1013.7 |
| 20260509095013 | 54 | 0 | 0.0 | 2.0 | 0.00 | 0.00 | 0.00 | 89 | 1013.7 |
| 20260509094534 | 53 | 92 | 0.0 | 1.0 | 0.00 | 0.00 | 0.00 | 88 | 1013.8 |
| 20260509094013 | 53 | 0 | 0.0 | 0.0 | 0.00 | 0.00 | 0.00 | 89 | 1013.7 |
| 20260509093514 | 53 | 0 | 0.0 | 1.0 | 0.00 | 0.00 | 0.00 | 89 | 1013.7 |
| 20260509093031 | 54 | 0 | 0.0 | 2.0 | 0.00 | 0.00 | 0.00 | 89 | 1013.7 |
| 20260509092513 | 53 | 92 | 0.0 | 2.0 | 0.00 | 0.00 | 0.00 | 89 | 1013.7 |
| 20260509092013 | 53 | 92 | 0.0 | 2.0 | 0.00 | 0.00 | 0.00 | 88 | 1013.7 |
| 20260509091531 | 54 | 0 | 1.0 | 2.0 | 0.00 | 0.00 | 0.00 | 87 | 1013.7 |
| 20260509091013 | 54 | 0 | 0.0 | 1.0 | 0.00 | 0.00 | 0.00 | 86 | 1013.8 |
| 20260509090514 | 55 | 0 | 0.0 | 1.0 | 0.00 | 0.00 | 0.00 | 85 | 1013.7 |
| 20260509085513 | 56 | 204 | 0.0 | 1.0 | 0.00 | 0.00 | 0.00 | 84 | 1013.8 |
| 20260509085013 | 55 | 0 | 0.0 | 2.0 | 0.00 | 0.00 | 0.00 | 85 | 1013.8 |
| 20260509084529 | 55 | 0 | 0.0 | 3.0 | 0.00 | 0.00 | 0.00 | 84 | 1013.8 |
| 20260509084015 | 56 | 0 | 0.0 | 4.0 | 0.00 | 0.00 | 0.00 | 84 | 1013.8 |
| 20260509083515 | 57 | 210 | 2.0 | 4.0 | 0.00 | 0.00 | 0.00 | 84 | 1013.9 |
| 20260509083030 | 57 | 222 | 2.0 | 5.0 | 0.00 | 0.00 | 0.00 | 84 | 1013.9 |
| 20260509082514 | 57 | 205 | 2.0 | 7.0 | 0.00 | 0.00 | 0.00 | 84 | 1013.9 |
| 20260509082014 | 57 | 223 | 3.0 | 7.0 | 0.00 | 0.00 | 0.00 | 84 | 1014.0 |
| 20260509081543 | 57 | 232 | 4.0 | 7.0 | 0.00 | 0.00 | 0.00 | 84 | 1014.0 |
| 20260509081014 | 57 | 231 | 4.0 | 7.0 | 0.00 | 0.00 | 0.00 | 84 | 1014.0 |
| 20260509080514 | 57 | 228 | 4.0 | 7.0 | 0.00 | 0.00 | 0.00 | 84 | 1014.0 |
| 20260509080030 | 57 | 208 | 3.0 | 6.0 | 0.00 | 0.00 | 0.00 | 84 | 1014.1 |
| 20260509075513 | 57 | 220 | 3.0 | 4.0 | 0.00 | 0.00 | 0.00 | 84 | 1014.1 |
| 20260509075015 | 58 | 217 | 2.0 | 3.0 | 0.00 | 0.00 | 0.00 | 84 | 1014.1 |
| 20260509074530 | 57 | 198 | 2.0 | 4.0 | 0.00 | 0.00 | 0.00 | 85 | 1014.2 |
| 20260509074013 | 57 | 203 | 2.0 | 4.0 | 0.00 | 0.00 | 0.00 | 85 | 1014.2 |
| 20260509073513 | 58 | 194 | 2.0 | 4.0 | 0.00 | 0.00 | 0.00 | 85 | 1014.2 |
| 20260509073042 | 58 | 195 | 1.0 | 4.0 | 0.00 | 0.00 | 0.00 | 85 | 1014.1 |
| 20260509072514 | 58 | 195 | 2.0 | 4.0 | 0.00 | 0.00 | 0.00 | 85 | 1014.1 |
| 20260509072013 | 58 | 194 | 2.0 | 4.0 | 0.00 | 0.00 | 0.00 | 85 | 1014.0 |
| 20260509071536 | 58 | 188 | 2.0 | 4.0 | 0.00 | 0.00 | 0.00 | 84 | 1014.1 |
| 20260509071012 | 58 | 193 | 2.0 | 3.0 | 0.00 | 0.00 | 0.00 | 84 | 1013.9 |
| 20260509070517 | 59 | 188 | 0.0 | 3.0 | 0.00 | 0.00 | 0.00 | 84 | 1013.9 |
| 20260509070040 | 58 | 0 | 0.0 | 3.0 | 0.00 | 0.00 | 0.00 | 84 | 1014.0 |
| 20260509065517 | 58 | 200 | 1.0 | 3.0 | 0.00 | 0.00 | 0.00 | 84 | 1014.0 |
| 20260509065013 | 58 | 200 | 2.0 | 4.0 | 0.00 | 0.00 | 0.00 | 84 | 1014.0 |
| 20260509064531 | 58 | 186 | 2.0 | 4.0 | 0.00 | 0.00 | 0.00 | 84 | 1014.1 |
| 20260509064017 | 58 | 183 | 2.0 | 4.0 | 0.00 | 0.00 | 0.00 | 84 | 1014.1 |
| 20260509063513 | 58 | 186 | 2.0 | 4.0 | 0.00 | 0.00 | 0.00 | 84 | 1014.1 |
| 20260509063054 | 58 | 172 | 0.0 | 4.0 | 0.00 | 0.00 | 0.00 | 85 | 1014.1 |
| 20260509062511 | 58 | 186 | 1.0 | 4.0 | 0.00 | 0.00 | 0.00 | 84 | 1014.2 |
| 20260509062010 | 59 | 0 | 0.0 | 4.0 | 0.00 | 0.00 | 0.00 | 83 | 1014.1 |
| 20260509061542 | 59 | 0 | 0.0 | 4.0 | 0.00 | 0.00 | 0.00 | 83 | 1014.2 |
| 20260509061012 | 59 | 174 | 1.0 | 3.0 | 0.00 | 0.00 | 0.00 | 83 | 1014.1 |
| 20260509060511 | 59 | 0 | 0.0 | 2.0 | 0.00 | 0.00 | 0.00 | 84 | 1014.2 |
| 20260509060047 | 59 | 182 | 0.0 | 2.0 | 0.00 | 0.00 | 0.00 | 83 | 1014.1 |
| 20260509055511 | 60 | 182 | 0.0 | 1.0 | 0.00 | 0.00 | 0.00 | 83 | 1014.1 |
| 20260509055013 | 60 | 0 | 0.0 | 0.0 | 0.00 | 0.00 | 0.00 | 84 | 1014.1 |
| 20260509054528 | 59 | 0 | 0.0 | 0.0 | 0.00 | 0.00 | 0.00 | 85 | 1014.1 |
| 20260509054010 | 59 | 0 | 0.0 | 0.0 | 0.00 | 0.00 | 0.00 | 85 | 1014.1 |
| 20260509053511 | 59 | 0 | 0.0 | 0.0 | 0.00 | 0.00 | 0.00 | 84 | 1014.1 |
| 20260509053032 | 60 | 0 | 0.0 | 0.0 | 0.00 | 0.00 | 0.00 | 84 | 1014.1 |
| 20260509052510 | 60 | 0 | 0.0 | 0.0 | 0.00 | 0.00 | 0.00 | 83 | 1014.1 |
| 20260509052010 | 60 | 0 | 0.0 | 0.0 | 0.00 | 0.00 | 0.00 | 83 | 1014.1 |
| 20260509051530 | 61 | 0 | 0.0 | 0.0 | 0.00 | 0.00 | 0.00 | 81 | 1014.0 |
| 20260509051010 | 61 | 0 | 0.0 | 2.0 | 0.00 | 0.00 | 0.00 | 81 | 1014.1 |
| 20260509050510 | 62 | 0 | 0.0 | 2.0 | 0.00 | 0.00 | 0.00 | 80 | 1014.0 |
| 20260509050031 | 62 | 0 | 1.0 | 2.0 | 0.00 | 0.00 | 0.00 | 80 | 1014.0 |
| 20260509045510 | 62 | 219 | 1.0 | 2.0 | 0.00 | 0.00 | 0.00 | 80 | 1014.0 |
| 20260509045013 | 63 | 0 | 0.0 | 3.0 | 0.00 | 0.00 | 0.00 | 80 | 1014.0 |
| 20260509044530 | 63 | 0 | 0.0 | 3.0 | 0.00 | 0.00 | 0.00 | 80 | 1013.9 |
| 20260509044012 | 63 | 196 | 2.0 | 3.0 | 0.00 | 0.00 | 0.00 | 80 | 1013.9 |
| 20260509043512 | 64 | 192 | 0.0 | 4.0 | 0.00 | 0.00 | 0.00 | 79 | 1013.9 |
| 20260509043031 | 64 | 0 | 0.0 | 5.0 | 0.00 | 0.00 | 0.00 | 79 | 1013.9 |
| 20260509042516 | 64 | 237 | 2.0 | 7.0 | 0.00 | 0.00 | 0.00 | 80 | 1013.8 |
| 20260509042017 | 64 | 251 | 3.0 | 7.0 | 0.00 | 0.00 | 0.00 | 80 | 1013.6 |
| 20260509041530 | 64 | 252 | 3.0 | 7.0 | 0.00 | 0.00 | 0.00 | 79 | 1013.5 |
| 20260509041012 | 64 | 254 | 3.0 | 7.0 | 0.00 | 0.00 | 0.00 | 79 | 1013.5 |
| 20260509040511 | 65 | 234 | 2.0 | 7.0 | 0.00 | 0.00 | 0.00 | 79 | 1013.4 |
| 20260509040029 | 65 | 232 | 4.0 | 7.0 | 0.00 | 0.00 | 0.00 | 79 | 1013.4 |
| 20260509035514 | 65 | 237 | 3.0 | 7.0 | 0.00 | 0.00 | 0.00 | 79 | 1013.4 |
| 20260509035013 | 66 | 226 | 3.0 | 7.0 | 0.00 | 0.00 | 0.00 | 79 | 1013.3 |
| 20260509034528 | 66 | 238 | 3.0 | 7.0 | 0.00 | 0.00 | 0.00 | 78 | 1013.3 |
| 20260509034012 | 67 | 249 | 4.0 | 6.0 | 0.00 | 0.00 | 0.00 | 77 | 1013.3 |
| 20260509033514 | 67 | 228 | 3.0 | 6.0 | 0.00 | 0.00 | 0.00 | 77 | 1013.3 |
| 20260509033028 | 67 | 229 | 4.0 | 6.0 | 0.00 | 0.00 | 0.00 | 77 | 1013.3 |
| 20260509032516 | 67 | 244 | 4.0 | 6.0 | 0.00 | 0.00 | 0.00 | 76 | 1013.2 |
| 20260509032016 | 68 | 243 | 3.0 | 7.0 | 0.00 | 0.00 | 0.00 | 75 | 1013.3 |
| 20260509031535 | 68 | 252 | 4.0 | 8.0 | 0.00 | 0.00 | 0.00 | 74 | 1013.3 |
| 20260509031017 | 69 | 251 | 4.0 | 8.0 | 0.00 | 0.00 | 0.00 | 73 | 1013.2 |
| 20260509030511 | 69 | 248 | 4.0 | 9.0 | 0.00 | 0.00 | 0.00 | 73 | 1013.1 |
| 20260509030029 | 70 | 261 | 5.0 | 9.0 | 0.00 | 0.00 | 0.00 | 72 | 1013.1 |
| 20260509025511 | 70 | 238 | 4.0 | 9.0 | 0.00 | 0.00 | 0.00 | 71 | 1013.0 |
| 20260509025014 | 70 | 250 | 5.0 | 9.0 | 0.00 | 0.00 | 0.00 | 70 | 1013.0 |
| 20260509024527 | 71 | 252 | 5.0 | 8.0 | 0.00 | 0.00 | 0.00 | 70 | 1013.0 |
| 20260509024013 | 71 | 249 | 4.0 | 8.0 | 0.00 | 0.00 | 0.00 | 70 | 1013.1 |
| 20260509023510 | 72 | 234 | 5.0 | 9.0 | 0.00 | 0.00 | 0.00 | 68 | 1013.0 |
| 20260509023030 | 72 | 248 | 5.0 | 10.0 | 0.00 | 0.00 | 0.00 | 68 | 1012.9 |
| 20260509022512 | 73 | 231 | 5.0 | 11.0 | 0.00 | 0.00 | 0.00 | 67 | 1012.9 |
| 20260509022011 | 73 | 250 | 6.0 | 11.0 | 0.00 | 0.00 | 0.00 | 67 | 1013.0 |
| 20260509021527 | 74 | 239 | 6.0 | 10.0 | 0.00 | 0.00 | 0.00 | 66 | 1012.9 |
| 20260509021013 | 74 | 250 | 6.0 | 12.0 | 0.00 | 0.00 | 0.00 | 66 | 1012.9 |
| 20260509020511 | 75 | 249 | 6.0 | 12.0 | 0.00 | 0.00 | 0.00 | 65 | 1012.9 |
| 20260509020045 | 75 | 247 | 7.0 | 11.0 | 0.00 | 0.00 | 0.00 | 65 | 1012.9 |
| 20260509015513 | 75 | 239 | 6.0 | 12.0 | 0.00 | 0.00 | 0.00 | 64 | 1012.9 |
| 20260509015010 | 76 | 242 | 8.0 | 12.0 | 0.00 | 0.00 | 0.00 | 63 | 1013.0 |
| 20260509014542 | 76 | 247 | 6.0 | 14.0 | 0.00 | 0.00 | 0.00 | 62 | 1013.1 |
| 20260509014011 | 77 | 246 | 8.0 | 14.0 | 0.00 | 0.00 | 0.00 | 62 | 1013.0 |
| 20260509013509 | 77 | 240 | 8.0 | 12.0 | 0.00 | 0.00 | 0.00 | 62 | 1013.1 |
| 20260509013037 | 78 | 248 | 9.0 | 14.0 | 0.00 | 0.00 | 0.00 | 60 | 1013.1 |
| 20260509012510 | 78 | 236 | 9.0 | 14.0 | 0.00 | 0.00 | 0.00 | 61 | 1013.1 |
| 20260509012011 | 79 | 248 | 10.0 | 14.0 | 0.00 | 0.00 | 0.00 | 60 | 1013.0 |
| 20260509011528 | 79 | 255 | 7.0 | 13.0 | 0.00 | 0.00 | 0.00 | 60 | 1013.0 |
| 20260509011010 | 79 | 241 | 6.0 | 12.0 | 0.00 | 0.00 | 0.00 | 59 | 1013.0 |
| 20260509010516 | 80 | 260 | 8.0 | 12.0 | 0.00 | 0.00 | 0.00 | 58 | 1013.0 |
| 20260509010030 | 80 | 244 | 7.0 | 11.0 | 0.00 | 0.00 | 0.00 | 58 | 1013.0 |
| 20260509005510 | 81 | 217 | 6.0 | 11.0 | 0.00 | 0.00 | 0.00 | 58 | 1013.1 |
| 20260509005012 | 81 | 206 | 6.0 | 11.0 | 0.00 | 0.00 | 0.00 | 58 | 1013.1 |
| 20260509004530 | 81 | 221 | 7.0 | 11.0 | 0.00 | 0.00 | 0.00 | 58 | 1013.1 |
| 20260509004013 | 81 | 231 | 6.0 | 11.0 | 0.00 | 0.00 | 0.00 | 58 | 1013.2 |
| 20260509003514 | 81 | 223 | 6.0 | 12.0 | 0.00 | 0.00 | 0.00 | 57 | 1013.3 |
| 20260509003038 | 82 | 215 | 6.0 | 12.0 | 0.00 | 0.00 | 0.00 | 57 | 1013.3 |
| 20260509002511 | 82 | 246 | 7.0 | 12.0 | 0.00 | 0.00 | 0.00 | 57 | 1013.4 |
| 20260509002011 | 82 | 259 | 6.0 | 9.0 | 0.00 | 0.00 | 0.00 | 56 | 1013.4 |
| 20260509001530 | 82 | 225 | 5.0 | 8.0 | 0.00 | 0.00 | 0.00 | 56 | 1013.4 |
| 20260509001013 | 82 | 298 | 2.0 | 8.0 | 0.00 | 0.00 | 0.00 | 54 | 1013.4 |
| 20260509000511 | 82 | 225 | 3.0 | 8.0 | 0.00 | 0.00 | 0.00 | 58 | 1013.4 |
| 20260509000027 | 81 | 232 | 4.0 | 8.0 | 0.00 | 0.00 | 0.00 | 58 | 1013.5 |
| 20260508235512 | 82 | 338 | 1.0 | 6.0 | 0.00 | 0.00 | 0.00 | 56 | 1013.5 |
| 20260508235012 | 83 | 204 | 3.0 | 8.0 | 0.00 | 0.00 | 0.00 | 54 | 1013.6 |
| 20260508234531 | 82 | 247 | 5.0 | 8.0 | 0.00 | 0.00 | 0.00 | 55 | 1013.6 |
| 20260508234010 | 82 | 297 | 4.0 | 8.0 | 0.00 | 0.00 | 0.00 | 56 | 1013.8 |
| 20260508233515 | 82 | 284 | 2.0 | 7.0 | 0.00 | 0.00 | 0.00 | 54 | 1013.7 |
| 20260508233030 | 82 | 0 | 1.0 | 7.0 | 0.00 | 0.00 | 0.00 | 51 | 1013.8 |
| 20260508232518 | 83 | 286 | 3.0 | 7.0 | 0.00 | 0.00 | 0.00 | 55 | 1013.9 |
| 20260508232019 | 83 | 267 | 2.0 | 7.0 | 0.00 | 0.00 | 0.00 | 51 | 1013.8 |
| 20260508231530 | 82 | 256 | 2.0 | 7.0 | 0.00 | 0.00 | 0.00 | 54 | 1013.9 |
| 20260508231010 | 82 | 267 | 4.0 | 7.0 | 0.00 | 0.00 | 0.00 | 54 | 1014.0 |
| 20260508230511 | 83 | 294 | 3.0 | 7.0 | 0.00 | 0.00 | 0.00 | 54 | 1013.9 |
| 20260508230030 | 83 | 0 | 2.0 | 7.0 | 0.00 | 0.00 | 0.00 | 52 | 1014.0 |
| 20260508225510 | 82 | 225 | 4.0 | 9.0 | 0.00 | 0.00 | 0.00 | 56 | 1014.1 |
| 20260508225011 | 81 | 236 | 3.0 | 9.0 | 0.00 | 0.00 | 0.00 | 57 | 1014.2 |
| 20260508224532 | 82 | 261 | 1.0 | 6.0 | 0.00 | 0.00 | 0.00 | 55 | 1014.3 |
| 20260508224011 | 82 | 265 | 3.0 | 9.0 | 0.00 | 0.00 | 0.00 | 55 | 1014.4 |
| 20260508223511 | 83 | 242 | 3.0 | 9.0 | 0.00 | 0.00 | 0.00 | 55 | 1014.5 |
| 20260508223034 | 82 | 226 | 5.0 | 9.0 | 0.00 | 0.00 | 0.00 | 54 | 1014.6 |
| 20260508222511 | 82 | 265 | 6.0 | 8.0 | 0.00 | 0.00 | 0.00 | 57 | 1014.6 |
| 20260508222014 | 82 | 229 | 1.0 | 5.0 | 0.00 | 0.00 | 0.00 | 55 | 1014.7 |
| 20260508221528 | 80 | 80 | 2.0 | 6.0 | 0.00 | 0.00 | 0.00 | 56 | 1014.7 |
| 20260508221012 | 81 | 309 | 1.0 | 7.0 | 0.00 | 0.00 | 0.00 | 55 | 1014.8 |
| 20260508220513 | 80 | 311 | 2.0 | 7.0 | 0.00 | 0.00 | 0.00 | 57 | 1015.0 |
| 20260508220030 | 80 | 310 | 3.0 | 8.0 | 0.00 | 0.00 | 0.00 | 59 | 1015.1 |
| 20260508215512 | 81 | 355 | 4.0 | 10.0 | 0.00 | 0.00 | 0.00 | 54 | 1015.2 |
| 20260508215011 | 81 | 279 | 5.0 | 10.0 | 0.00 | 0.00 | 0.00 | 54 | 1015.3 |
| 20260508214530 | 81 | 268 | 5.0 | 8.0 | 0.00 | 0.00 | 0.00 | 57 | 1015.3 |
| 20260508214009 | 81 | 254 | 2.0 | 10.0 | 0.00 | 0.00 | 0.00 | 57 | 1015.4 |
| 20260508213510 | 80 | 0 | 2.0 | 10.0 | 0.00 | 0.00 | 0.00 | 58 | 1015.5 |
| 20260508213027 | 79 | 267 | 3.0 | 10.0 | 0.00 | 0.00 | 0.00 | 60 | 1015.6 |
| 20260508212513 | 79 | 340 | 1.0 | 5.0 | 0.00 | 0.00 | 0.00 | 60 | 1015.6 |
| 20260508212012 | 79 | 45 | 1.0 | 8.0 | 0.00 | 0.00 | 0.00 | 58 | 1015.7 |
| 20260508211530 | 79 | 173 | 2.0 | 8.0 | 0.00 | 0.00 | 0.00 | 57 | 1015.8 |
| 20260508211011 | 79 | 311 | 3.0 | 8.0 | 0.00 | 0.00 | 0.00 | 59 | 1015.9 |
| 20260508210513 | 79 | 19 | 2.0 | 8.0 | 0.00 | 0.00 | 0.00 | 57 | 1016.0 |
| 20260508210030 | 79 | 302 | 2.0 | 9.0 | 0.00 | 0.00 | 0.00 | 60 | 1016.0 |
| 20260508205512 | 80 | 190 | 5.0 | 9.0 | 0.00 | 0.00 | 0.00 | 60 | 1016.0 |
| 20260508205019 | 78 | 0 | 0.0 | 10.0 | 0.00 | 0.00 | 0.00 | 58 | 1016.0 |
| 20260508204535 | 78 | 263 | 3.0 | 10.0 | 0.00 | 0.00 | 0.00 | 61 | 1016.1 |
| 20260508204012 | 78 | 297 | 6.0 | 10.0 | 0.00 | 0.00 | 0.00 | 60 | 1016.1 |
| 20260508203513 | 77 | 323 | 3.0 | 8.0 | 0.00 | 0.00 | 0.00 | 60 | 1016.2 |
| 20260508203027 | 78 | 12 | 3.0 | 6.0 | 0.00 | 0.00 | 0.00 | 62 | 1016.1 |
| 20260508202512 | 77 | 325 | 3.0 | 9.0 | 0.00 | 0.00 | 0.00 | 60 | 1016.2 |
| 20260508202013 | 77 | 184 | 2.0 | 9.0 | 0.00 | 0.00 | 0.00 | 59 | 1016.2 |
| 20260508201533 | 76 | 263 | 3.0 | 8.0 | 0.00 | 0.00 | 0.00 | 58 | 1016.2 |
| 20260508201011 | 77 | 360 | 2.0 | 8.0 | 0.00 | 0.00 | 0.00 | 60 | 1016.3 |
| 20260508200513 | 76 | 271 | 5.0 | 8.0 | 0.00 | 0.00 | 0.00 | 59 | 1016.5 |
| 20260508200034 | 77 | 251 | 4.0 | 7.0 | 0.00 | 0.00 | 0.00 | 60 | 1016.5 |
| 20260508195513 | 76 | 184 | 2.0 | 9.0 | 0.00 | 0.00 | 0.00 | 63 | 1016.5 |
| 20260508195013 | 75 | 267 | 3.0 | 9.0 | 0.00 | 0.00 | 0.00 | 64 | 1016.5 |
| 20260508194530 | 76 | 259 | 4.0 | 10.0 | 0.00 | 0.00 | 0.00 | 60 | 1016.5 |
| 20260508194013 | 76 | 259 | 4.0 | 10.0 | 0.00 | 0.00 | 0.00 | 58 | 1016.5 |
| 20260508193513 | 76 | 231 | 4.0 | 9.0 | 0.00 | 0.00 | 0.00 | 63 | 1016.6 |
| 20260508193027 | 75 | 236 | 3.0 | 8.0 | 0.00 | 0.00 | 0.00 | 63 | 1016.5 |
| 20260508192511 | 74 | 217 | 3.0 | 8.0 | 0.00 | 0.00 | 0.00 | 62 | 1016.7 |
| 20260508192017 | 74 | 260 | 4.0 | 10.0 | 0.00 | 0.00 | 0.00 | 62 | 1016.7 |
| 20260508191534 | 73 | 290 | 4.0 | 10.0 | 0.00 | 0.00 | 0.00 | 66 | 1016.8 |
| 20260508191011 | 73 | 225 | 2.0 | 9.0 | 0.00 | 0.00 | 0.00 | 62 | 1016.9 |
| 20260508190513 | 73 | 33 | 5.0 | 9.0 | 0.00 | 0.00 | 0.00 | 65 | 1017.0 |
| 20260508190036 | 72 | 219 | 4.0 | 10.0 | 0.00 | 0.00 | 0.00 | 63 | 1017.0 |
| 20260508185513 | 73 | 246 | 7.0 | 10.0 | 0.00 | 0.00 | 0.00 | 64 | 1017.0 |
| 20260508185010 | 72 | 236 | 6.0 | 9.0 | 0.00 | 0.00 | 0.00 | 66 | 1017.0 |
| 20260508184529 | 72 | 258 | 5.0 | 10.0 | 0.00 | 0.00 | 0.00 | 65 | 1017.1 |
| 20260508184011 | 71 | 271 | 4.0 | 11.0 | 0.00 | 0.00 | 0.00 | 64 | 1017.1 |
| 20260508183512 | 71 | 224 | 4.0 | 11.0 | 0.00 | 0.00 | 0.00 | 67 | 1017.1 |
| 20260508183033 | 70 | 263 | 5.0 | 11.0 | 0.00 | 0.00 | 0.00 | 66 | 1017.2 |
| 20260508182510 | 70 | 263 | 4.0 | 10.0 | 0.00 | 0.00 | 0.00 | 71 | 1017.2 |
| 20260508182011 | 69 | 215 | 5.0 | 10.0 | 0.00 | 0.00 | 0.00 | 68 | 1017.2 |
| 20260508181534 | 68 | 205 | 2.0 | 8.0 | 0.00 | 0.00 | 0.00 | 70 | 1017.1 |
| 20260508181012 | 69 | 268 | 5.0 | 8.0 | 0.00 | 0.00 | 0.00 | 69 | 1017.1 |
| 20260508180512 | 68 | 224 | 2.0 | 8.0 | 0.00 | 0.00 | 0.00 | 71 | 1017.0 |
| 20260508180028 | 69 | 233 | 4.0 | 8.0 | 0.00 | 0.00 | 0.00 | 70 | 1017.1 |
| 20260508175511 | 69 | 263 | 3.0 | 8.0 | 0.00 | 0.00 | 0.00 | 72 | 1017.2 |
| 20260508175016 | 68 | 266 | 4.0 | 7.0 | 0.00 | 0.00 | 0.00 | 71 | 1017.3 |
| 20260508174536 | 67 | 188 | 4.0 | 7.0 | 0.00 | 0.00 | 0.00 | 73 | 1017.3 |
| 20260508174010 | 67 | 219 | 4.0 | 7.0 | 0.00 | 0.00 | 0.00 | 75 | 1017.4 |
| 20260508173513 | 66 | 213 | 2.0 | 7.0 | 0.00 | 0.00 | 0.00 | 74 | 1017.5 |
| 20260508173035 | 66 | 210 | 3.0 | 6.0 | 0.00 | 0.00 | 0.00 | 76 | 1017.5 |
| 20260508172512 | 66 | 221 | 3.0 | 6.0 | 0.00 | 0.00 | 0.00 | 76 | 1017.4 |
| 20260508172013 | 65 | 0 | 2.0 | 7.0 | 0.00 | 0.00 | 0.00 | 75 | 1017.5 |
| 20260508171529 | 65 | 309 | 1.0 | 7.0 | 0.00 | 0.00 | 0.00 | 78 | 1017.6 |
| 20260508171012 | 65 | 219 | 3.0 | 7.0 | 0.00 | 0.00 | 0.00 | 76 | 1017.7 |
| 20260508170511 | 64 | 175 | 1.0 | 7.0 | 0.00 | 0.00 | 0.00 | 79 | 1017.7 |
| 20260508170030 | 63 | 300 | 2.0 | 7.0 | 0.00 | 0.00 | 0.00 | 79 | 1017.6 |
| 20260508165511 | 62 | 281 | 1.0 | 7.0 | 0.00 | 0.00 | 0.00 | 81 | 1017.7 |
| 20260508165017 | 62 | 220 | 3.0 | 7.0 | 0.00 | 0.00 | 0.00 | 80 | 1017.7 |
| 20260508164530 | 61 | 233 | 1.0 | 6.0 | 0.00 | 0.00 | 0.00 | 81 | 1017.7 |
| 20260508164012 | 61 | 171 | 3.0 | 6.0 | 0.00 | 0.00 | 0.00 | 84 | 1017.6 |
| 20260508163513 | 59 | 167 | 2.0 | 6.0 | 0.00 | 0.00 | 0.00 | 86 | 1017.5 |
| 20260508163028 | 59 | 288 | 2.0 | 6.0 | 0.00 | 0.00 | 0.00 | 85 | 1017.6 |
| 20260508162511 | 58 | 321 | 0.0 | 5.0 | 0.00 | 0.00 | 0.00 | 87 | 1017.6 |
| 20260508162013 | 57 | 192 | 1.0 | 6.0 | 0.00 | 0.00 | 0.00 | 86 | 1017.7 |
| 20260508161529 | 57 | 200 | 3.0 | 6.0 | 0.00 | 0.00 | 0.00 | 87 | 1017.6 |
| 20260508161010 | 57 | 191 | 3.0 | 6.0 | 0.00 | 0.00 | 0.00 | 88 | 1017.7 |
| 20260508160512 | 56 | 0 | 1.0 | 7.0 | 0.00 | 0.00 | 0.00 | 88 | 1017.7 |
| 20260508160028 | 56 | 235 | 2.0 | 7.0 | 0.00 | 0.00 | 0.00 | 89 | 1017.8 |
| 20260508155510 | 55 | 219 | 5.0 | 7.0 | 0.00 | 0.00 | 0.00 | 90 | 1017.8 |
| 20260508155014 | 55 | 209 | 2.0 | 7.0 | 0.00 | 0.00 | 0.00 | 89 | 1017.8 |
| 20260508154530 | 55 | 202 | 3.0 | 7.0 | 0.00 | 0.00 | 0.00 | 90 | 1017.7 |
| 20260508154012 | 55 | 233 | 2.0 | 8.0 | 0.00 | 0.00 | 0.00 | 90 | 1017.8 |
| 20260508153513 | 55 | 192 | 3.0 | 8.0 | 0.00 | 0.00 | 0.00 | 90 | 1017.8 |
| 20260508153028 | 54 | 204 | 3.0 | 9.0 | 0.00 | 0.00 | 0.00 | 90 | 1017.7 |
| 20260508152515 | 54 | 233 | 4.0 | 10.0 | 0.00 | 0.00 | 0.00 | 90 | 1017.7 |